Flag for Canada Weather past 2 weeks in Brandon, Manitoba, Canada

Now
27 °F

Passing clouds.


Feels Like: 23 °F
Forecast: 8 / 23 °F
Wind: 3 mph from North

Location: Brandon

Current Time: Dec 24, 2014 at 6:17:08 PM

Latest Report: Dec 24, 2014 at 5:00 PM


Visibility: 12 mi

Pressure: 29.46 "Hg

Humidity: 93%

Dew point: 25 °F

Location of BrandonLocation

Historic Weather in Brandon — Graph

°F

Brandon temperature yesterday

Maximum temperature yesterday: 28 °F (at 12:00 AM)
Minimum temperature yesterday: 23 °F (at 6:00 PM)
Average temperature yesterday: 27 °F

Past Weeks' High & Low Weather Summary

 TemperatureHumidityPressure
High37 °F (Dec 13, 1:00 PM)100% (Dec 11, 11:00 AM)30.54 "Hg (Dec 11, 11:00 AM)
Low-8 °F (Dec 17, 7:00 AM)63% (Dec 15, 2:00 PM)29.45 "Hg (Dec 24, 4:00 PM)
Average20 °F90%30.02 "Hg
* Reported Dec 9 5:00 PM — Dec 24 5:00 PM, Brandon, Weather by CustomWeather, © 2014

Note: Actual official high and low records may vary slightly from our data, if they occured in-between our weather recording intervals... More about our weather records

Advertising

Brandon weather history for previous 24 hours

 ConditionsComfort  
Time TempWeatherWind HumidityBarometerVisibility
5:00 PM
Dec 24
27 °FPassing clouds.3 mph93%29.46 "Hg12 mi
4:00 PM28 °FPartly sunny.5 mph93%29.45 "Hg15 mi
3:00 PM30 °FMostly cloudy.10 mph86%29.46 "Hg15 mi
2:00 PM27 °FLight snow. Mostly cloudy.5 mph100%29.49 "Hg6 mi
1:46 PM27 °FLight snow. Mostly cloudy.10 mph93%29.49 "Hg6 mi
1:00 PM25 °FLight snow. Overcast.8 mph100%29.54 "Hg3 mi
12:51 PM25 °FLight snow. Overcast.7 mph100%29.54 "Hg3 mi
12:00 PM25 °FLight snow. Low clouds.7 mph93%29.57 "Hg6 mi
11:50 AM25 °FLight snow. More clouds than sun.8 mph93%29.58 "Hg6 mi
11:00 AM23 °FIce fog.7 mph100%29.62 "Hg5 mi
10:00 AM23 °FIce fog.7 mph100%29.68 "Hg4 mi
9:00 AM23 °FIce fog.8 mph100%29.72 "Hg1 mi
8:00 AM23 °FIce fog.6 mph100%29.75 "Hg1 mi
7:00 AM23 °FIce fog.6 mph93%29.80 "Hg2 mi
6:00 AM21 °FLow clouds.7 mph100%29.85 "Hg8 mi
5:00 AM21 °FLow clouds.7 mph100%29.90 "Hg12 mi
4:00 AM21 °FLow clouds.9 mph100%29.93 "Hg12 mi
3:00 AM21 °FLow clouds.7 mph93%29.98 "Hg10 mi
2:00 AM21 °FLow clouds.9 mph93%29.99 "Hg15 mi
1:00 AM21 °FLow clouds.10 mph93%30.02 "Hg15 mi
12:00 AM21 °FLow clouds.8 mph93%30.05 "Hg15 mi
11:00 PM
Dec 23
23 °FOvercast.9 mph86%30.08 "Hg15 mi
10:00 PM23 °FOvercast.7 mph93%30.09 "Hg15 mi
9:00 PM23 °FOvercast.3 mph93%30.11 "Hg15 mi
8:00 PM23 °FOvercast.8 mph93%30.13 "Hg15 mi
7:00 PM25 °FOvercast.14 mph93%30.16 "Hg15 mi
6:00 PM23 °FMostly cloudy.10 mph93%30.15 "Hg15 mi
Weather by CustomWeather, © 2014

See weather overviewHow to use our weather pages